User: anonymous   Login
Location: Hartman Creek State Park
(44.3257°N, 89.2134°W)
Time: 09:41:14
(UTC-06:00)
Language:

Terra - Orbit

View from above orbital plane
View from above orbital plane
View from above satellite
View from above satellite

Ground track
Ground track

The orbit data is extracted from the following two-line orbital elements,

1 25994U 99068A   14356.11912107  .00000924  00000-0  21504-3 0  9408
2 25994 098.2086 068.1578 0001033 106.6466 253.4856 14.57108623798436
Epoch (UTC): 22 December 2014 02:51:32
Eccentricity: 0.0001033
inclination: 98.2086°
perigee height: 702 km
apogee height: 703 km
right ascension of ascending node: 68.1578°
argument of perigee: 106.6466°
revolutions per day: 14.57108623
mean anomaly at epoch: 253.4856°
orbit number at epoch: 79843

The dashed part of the orbit path shows where the satellite is in the earth's shadow,  

DLR